Flag for Germany Weather past 2 weeks in Paderborn, North Rhine-Westphalia, Germany

Now
72 °F

Sunny.


Feels Like: 77 °F
Forecast: 53 / 84 °F
Wind: 6 mph from North

Location: Paderborn / Lippstadt

Current Time: Jul 6, 2015 at 4:33:50 PM

Latest Report: Jul 6, 2015 at 4:20 PM


Visibility: 10 mi

Pressure: 30.15 "Hg

Humidity: 44%

Dew point: 48 °F

Location of PaderbornLocation

Historic Weather in Paderborn — Graph

°F

Paderborn temperature yesterday

Maximum temperature yesterday: 82 °F (at 3:50 PM)
Minimum temperature yesterday: 61 °F (at 11:20 PM)
Average temperature yesterday: 72 °F

Past Weeks' High & Low Weather Summary

 TemperatureHumidityPressure
High97 °F (Jul 4, 1:50 PM)100% (Jun 24, 3:50 AM)30.27 "Hg (Jun 24, 3:50 AM)
Low46 °F (Jun 23, 1:20 AM)23% (Jul 4, 2:50 PM)29.68 "Hg (Jun 22, 8:20 PM)
Average66 °F64%30.08 "Hg
* Reported Jun 21 3:20 PM — Jul 6 3:20 PM, Paderborn, Weather by CustomWeather, © 2015

Note: Actual official high and low records may vary slightly from our data, if they occured in-between our weather recording intervals... More about our weather records

Advertising

Paderborn weather history for previous 24 hours

 ConditionsComfort  
Time TempWeatherWind HumidityBarometerVisibility
3:20 PM
Mon, Jul 6
70 °FScattered clouds.8 mph43%30.15 "HgN/A
2:50 PM72 °FScattered clouds.8 mph44%30.15 "HgN/A
2:20 PM68 °FScattered clouds.10 mph46%30.18 "HgN/A
1:50 PM70 °FScattered clouds.8 mph40%30.18 "HgN/A
1:20 PM68 °FScattered clouds.12 mph46%30.18 "HgN/A
12:50 PM66 °FScattered clouds.10 mph52%30.18 "HgN/A
12:20 PM68 °FScattered clouds.8 mph49%30.18 "HgN/A
11:50 AM66 °FScattered clouds.8 mph56%30.18 "HgN/A
11:20 AM66 °FScattered clouds.8 mph64%30.18 "HgN/A
10:50 AM64 °FScattered clouds.7 mph68%30.18 "HgN/A
10:20 AM64 °FScattered clouds.9 mph68%30.18 "HgN/A
9:50 AM63 °FScattered clouds.8 mph73%30.18 "HgN/A
9:20 AM63 °FScattered clouds.12 mph77%30.15 "HgN/A
8:50 AM59 °FScattered clouds.8 mph82%30.15 "HgN/A
8:20 AM61 °FScattered clouds.9 mph77%30.15 "HgN/A
7:50 AM59 °FScattered clouds.12 mph82%30.15 "HgN/A
7:20 AM59 °FScattered clouds.7 mph82%30.15 "HgN/A
6:50 AM59 °FScattered clouds.9 mph88%30.12 "HgN/A
6:20 AM57 °FScattered clouds.6 mph94%30.12 "HgN/A
5:20 AM57 °FPassing clouds.5 mph94%30.12 "HgN/A
4:50 AM59 °FPassing clouds.7 mph88%30.12 "HgN/A
4:20 AM59 °FClear.7 mph88%30.12 "Hg10 mi
3:50 AM57 °FClear.6 mph94%30.12 "Hg10 mi
3:20 AM59 °FClear.9 mph88%30.12 "Hg10 mi
2:50 AM59 °FClear.7 mph94%30.12 "Hg10 mi
2:20 AM61 °FClear.6 mph88%30.09 "Hg10 mi
1:50 AM61 °FPassing clouds.8 mph88%30.09 "HgN/A
1:20 AM61 °FPassing clouds.5 mph94%30.07 "HgN/A
12:50 AM61 °FPassing clouds.5 mph94%30.07 "HgN/A
12:20 AM61 °FPassing clouds.6 mph94%30.07 "HgN/A
11:50 PM
Sun, Jul 5
61 °FPassing clouds.6 mph94%30.04 "HgN/A
11:20 PM61 °FThunderstorms. Partly cloudy.8 mph94%30.04 "HgN/A
10:55 PM63 °FThunderstorms. Passing clouds.6 mph88%30.01 "HgN/A
10:50 PM63 °FSprinkles. Passing clouds.8 mph88%30.01 "HgN/A
10:20 PM63 °FPassing clouds.7 mph94%30.01 "HgN/A
9:50 PM63 °FLight rain. Scattered clouds.7 mph94%30.01 "HgN/A
9:20 PM64 °FThunderstorms. Scattered clouds.8 mph88%29.95 "HgN/A
8:50 PM68 °FScattered clouds.10 mph94%29.95 "HgN/A
8:20 PM70 °FPassing clouds.7 mph94%29.95 "HgN/A
7:50 PM70 °FScattered clouds.6 mph88%29.95 "HgN/A
6:50 PM72 °FScattered clouds.3 mph83%29.89 "HgN/A
6:20 PMN/AScattered clouds.8 mphN/A29.89 "HgN/A
5:50 PMN/AScattered clouds.12 mphN/A29.89 "HgN/A
4:50 PM77 °FStrong thunderstorms. Scattered clouds.9 mph61%29.92 "HgN/A
4:20 PM82 °FSunny.16 mph55%29.92 "Hg10 mi
Weather by CustomWeather, © 2015

See weather overviewHow to use our weather pages